Date String (YYYY-MM-DD hh:mm:ss) UTC,Instrument flags,Ambient pressure (hPa),Sample flow (lpm),Bypass flow (lpm),Sample temperature (°C),Ambient temperature (°C),ASC tube jacket temperature (°C),LED temperature (°C),Box temperature (°C),Sample RH (%),Span deviation,Mass concentration (μg/m³),Mass concentration (μg/m³),Mass concentration (μg/m³)
DateTimeUTC,F1_M11,P_M11,Q1_M11,Q2_M11,T1_M11,T2_M11,T3_M11,T4_M11,T5_M11,U1_M11,ZSPAN_M11,X0_M11,X2_M11,X1_M11
2022-02-02 06:00:00,,0824.4,5.01,0.00,22.2,22.0,00.0,31.3,23.9,09.5,0000.0,0008.45,0003.83,0003.22
2022-02-02 06:01:00,,0824.4,5.00,0.00,22.3,22.8,00.0,31.3,24.2,09.3,0000.0,0008.19,0003.70,0003.14
2022-02-02 06:02:00,,0824.5,5.01,0.00,22.5,23.1,00.0,31.4,24.3,09.2,0000.0,0007.40,0003.57,0003.00
2022-02-02 06:03:00,,0824.5,5.00,0.00,22.5,22.7,00.0,31.4,24.3,09.1,0000.0,0007.14,0003.44,0002.80
2022-02-02 06:04:00,,0824.5,4.99,0.00,22.4,22.4,00.0,31.4,24.2,09.1,0000.0,0005.93,0003.26,0002.60
2022-02-02 06:05:00,,0824.5,5.01,0.00,22.4,22.0,00.0,31.4,24.0,09.0,0000.0,0005.33,0003.08,0002.39
2022-02-02 06:06:00,,0824.5,4.99,0.00,22.3,21.7,00.0,31.4,23.9,09.0,0000.0,0005.08,0002.87,0002.20
2022-02-02 06:07:00,,0824.4,5.02,0.00,22.3,21.5,00.0,31.3,23.8,09.0,0000.0,0004.78,0002.68,0002.05
2022-02-02 06:08:00,,0824.4,4.99,0.00,22.2,21.3,00.0,31.3,23.7,09.0,0000.0,0004.41,0002.50,0001.94
2022-02-02 06:09:00,,0824.4,5.02,0.00,22.1,21.2,00.0,31.3,23.6,09.0,0000.0,0004.42,0002.49,0001.91
2022-02-02 06:10:00,,0824.4,4.98,0.00,22.1,21.2,00.0,31.3,23.6,09.0,0000.0,0004.49,0002.47,0001.89
2022-02-02 06:11:00,,0824.4,5.01,0.00,22.1,21.7,00.0,31.3,23.7,09.0,0000.0,0004.62,0002.49,0001.87
2022-02-02 06:12:00,,0824.4,5.00,0.00,22.2,22.5,00.0,31.3,24.0,08.9,0000.0,0004.58,0002.42,0001.83
2022-02-02 06:13:00,,0824.4,4.99,0.00,22.4,23.1,00.0,31.3,24.2,08.8,0000.0,0004.24,0002.35,0001.81
2022-02-02 06:14:00,,0824.4,5.00,0.00,22.4,22.8,00.0,31.3,24.2,08.8,0000.0,0004.63,0002.32,0001.81
2022-02-02 06:15:00,,0824.4,4.99,0.00,22.4,22.5,00.0,31.3,24.1,08.8,0000.0,0004.61,0002.36,0001.80
2022-02-02 06:16:00,,0824.4,5.02,0.00,22.3,22.1,00.0,31.3,24.0,08.8,0000.0,0004.54,0002.37,0001.79
2022-02-02 06:17:00,,0824.4,4.99,0.00,22.3,21.8,00.0,31.3,23.9,08.8,0000.0,0004.47,0002.35,0001.78
2022-02-02 06:18:00,,0824.3,4.99,0.00,22.2,21.5,00.0,31.3,23.7,08.8,0000.0,0004.40,0002.34,0001.79
2022-02-02 06:19:00,,0824.3,5.00,0.00,22.1,21.3,00.0,31.3,23.7,08.9,0000.0,0005.77,0002.38,0001.79
2022-02-02 06:20:00,,0824.3,5.00,0.00,22.0,21.2,00.0,31.2,23.5,08.9,0000.0,0006.05,0002.40,0001.79
2022-02-02 06:21:00,,0824.3,5.01,0.00,22.0,21.0,00.0,31.2,23.5,08.9,0000.0,0005.93,0002.37,0001.79
2022-02-02 06:22:00,,0824.4,5.00,0.00,22.0,21.4,00.0,31.2,23.5,08.9,0000.0,0005.85,0002.34,0001.78
2022-02-02 06:23:00,,0824.4,5.00,0.00,22.1,22.2,00.0,31.2,23.8,08.9,0000.0,0005.79,0002.35,0001.78
2022-02-02 06:24:00,,0824.5,5.00,0.00,22.2,23.0,00.0,31.2,24.1,08.8,0000.0,0005.82,0002.34,0001.76
2022-02-02 06:25:00,,0824.4,5.00,0.00,22.3,22.7,00.0,31.3,24.1,08.7,0000.0,0005.42,0002.36,0001.74
2022-02-02 06:26:00,,0824.4,5.00,0.00,22.3,22.4,00.0,31.3,24.0,08.7,0000.0,0005.11,0002.29,0001.71
2022-02-02 06:27:00,,0824.4,4.99,0.00,22.2,22.0,00.0,31.2,23.9,08.7,0000.0,0005.16,0002.27,0001.70
2022-02-02 06:28:00,,0824.3,5.01,0.00,22.1,21.5,00.0,31.2,23.7,08.8,0000.0,0005.20,0002.26,0001.68
2022-02-02 06:29:00,,0824.3,4.98,0.00,22.1,21.3,00.0,31.2,23.6,08.8,0000.0,0005.26,0002.27,0001.66
2022-02-02 06:30:00,,0824.3,5.01,0.00,22.0,21.1,00.0,31.1,23.4,08.8,0000.0,0004.49,0002.25,0001.64
2022-02-02 06:31:00,,0824.3,4.99,0.00,21.9,20.9,00.0,31.1,23.4,08.9,0000.0,0003.94,0002.19,0001.62
2022-02-02 06:32:00,,0824.3,5.02,0.00,21.8,20.7,00.0,31.1,23.3,08.9,0000.0,0003.89,0002.16,0001.60
2022-02-02 06:33:00,,0824.4,4.99,0.00,21.9,21.4,00.0,31.1,23.4,08.9,0000.0,0003.79,0002.11,0001.60
2022-02-02 06:34:00,,0824.4,5.00,0.00,22.0,22.3,00.0,31.1,23.8,08.8,0000.0,0003.82,0002.11,0001.61
2022-02-02 06:35:00,,0824.4,4.99,0.00,22.1,22.8,00.0,31.1,24.0,08.7,0000.0,0004.27,0002.20,0001.64
2022-02-02 06:36:00,,0824.4,5.00,0.00,22.2,22.5,00.0,31.1,23.9,08.7,0000.0,0005.70,0002.18,0001.64
2022-02-02 06:37:00,,0824.4,5.01,0.00,22.1,22.0,00.0,31.1,23.8,08.7,0000.0,0005.76,0002.18,0001.64
2022-02-02 06:38:00,,0824.4,5.01,0.00,22.0,21.6,00.0,31.1,23.7,08.7,0000.0,0005.62,0002.15,0001.65
2022-02-02 06:39:00,,0824.4,5.00,0.00,22.0,21.3,00.0,31.1,23.5,08.8,0000.0,0005.71,0002.20,0001.67
2022-02-02 06:40:00,,0824.5,5.00,0.00,21.9,21.1,00.0,31.1,23.4,08.8,0000.0,0005.99,0002.31,0001.68
2022-02-02 06:41:00,,0824.4,5.00,0.00,21.8,21.1,00.0,31.0,23.3,08.8,0000.0,0006.04,0002.36,0001.70
2022-02-02 06:42:00,,0824.5,5.00,0.00,21.9,21.7,00.0,31.0,23.5,08.8,0000.0,0006.95,0002.40,0001.73
2022-02-02 06:43:00,,0824.5,5.00,0.00,22.0,22.5,00.0,31.1,23.8,08.7,0000.0,0007.46,0002.44,0001.75
2022-02-02 06:44:00,,0824.5,4.99,0.00,22.2,23.0,00.0,31.1,24.1,08.6,0000.0,0007.63,0002.53,0001.78
2022-02-02 06:45:00,,0824.4,5.00,0.00,22.2,22.8,00.0,31.1,24.0,08.6,0000.0,0007.80,0002.61,0001.80
2022-02-02 06:46:00,,0824.4,5.00,0.00,22.2,22.5,00.0,31.1,23.9,08.6,0000.0,0007.77,0002.58,0001.80
2022-02-02 06:47:00,,0824.4,5.00,0.00,22.1,22.1,00.0,31.1,23.8,08.6,0000.0,0006.75,0002.58,0001.80
2022-02-02 06:48:00,,0824.4,5.01,0.00,22.1,21.8,00.0,31.1,23.6,08.6,0000.0,0006.50,0002.62,0001.81
2022-02-02 06:49:00,,0824.4,4.99,0.00,22.0,21.6,00.0,31.1,23.4,08.6,0000.0,0006.60,0002.66,0001.81
2022-02-02 06:50:00,,0824.4,5.02,0.00,22.0,22.0,00.0,31.1,23.6,08.6,0000.0,0006.56,0002.65,0001.81
2022-02-02 06:51:00,,0824.4,5.00,0.00,22.1,22.7,00.0,31.1,23.9,08.5,0000.0,0006.25,0002.54,0001.81
2022-02-02 06:52:00,,0824.5,5.00,0.00,22.3,23.4,00.0,31.2,24.2,08.4,0000.0,0006.33,0002.51,0001.81
2022-02-02 06:53:00,,0824.5,5.01,0.00,22.4,23.4,00.0,31.2,24.3,08.3,0000.0,0005.47,0002.44,0001.80
2022-02-02 06:54:00,,0824.5,5.00,0.00,22.4,22.9,00.0,31.2,24.2,08.2,0000.0,0004.49,0002.40,0001.76
2022-02-02 06:55:00,,0824.5,5.00,0.00,22.3,22.5,00.0,31.3,24.0,08.2,0000.0,0004.26,0002.31,0001.71
2022-02-02 06:56:00,,0824.5,4.98,0.00,22.3,22.1,00.0,31.3,23.9,08.2,0000.0,0003.90,0002.24,0001.66
2022-02-02 06:57:00,,0824.5,5.00,0.00,22.2,21.9,00.0,31.2,23.7,08.3,0000.0,0003.71,0002.20,0001.62
2022-02-02 06:58:00,,0824.5,4.99,0.00,22.1,21.6,00.0,31.2,23.6,08.3,0000.0,0003.54,0002.15,0001.60
2022-02-02 06:59:00,,0824.6,5.01,0.00,22.1,21.7,00.0,31.2,23.6,08.3,0000.0,0003.41,0002.10,0001.58
